Location: ??
(35.1714°N, 128.2806°E)
Time: 14:26:11
(UTC+00:00)

Cosmos 2266 Rocket - Pass Details

Date: 29 October 2020
Orbit: 935 x 1007 km, 82.9° (Epoch: 30 November)

Event Time Altitude Azimuth Distance (km) Brightness Sun altitude
Rises 21:09:06 0° 183° (S) 3,578 7.1 -8.2°
Reaches altitude 10° 21:11:33 10° 182° (S) 2,636 6.4 -7.7°
Maximum altitude 21:17:34 85° 95° (E) 944 4.1 -6.5°
Drops below altitude 10° 21:23:39 10° 7° (N) 2,664 6.3 -5.3°
Sets 21:26:09 0° 7° (N) 3,620 6.9 -4.8°
